W2CJS Weather Reports


Display with metric or nautical units.
time (UTC)temp
F
wind
direction
speed
MPH
gust
MPH
rain 1hr
in
rain 24hr
in
rain mn
in
humidity
%
barometer
mb
20210616005003 53 0 0.0 0.0 0.00 0.11 0.10 92 1010.7
20210616004003 54 0 0.0 0.0 0.00 0.12 0.10 91 1010.6
20210616003003 54 0 0.0 0.0 0.00 0.13 0.10 90 1010.6
20210616002003 54 84 0.0 3.0 0.00 0.13 0.10 89 1010.6
20210616001003 54 102 0.0 2.0 0.00 0.14 0.10 89 1010.5
20210616000003 54 65 0.0 2.0 0.00 0.16 0.10 90 1010.4
20210615235003 54 59 1.0 4.0 0.00 0.17 0.10 90 1010.4
20210615234003 54 67 2.0 10.0 0.00 0.19 0.10 91 1010.2
20210615233003 54 111 2.0 8.0 0.00 0.21 0.10 92 1010.0
20210615232003 54 51 2.0 7.0 0.00 0.23 0.10 92 1010.1
20210615231003 54 189 1.0 4.0 0.00 0.25 0.10 92 1009.9
20210615230003 54 64 1.0 6.0 0.00 0.27 0.10 92 1009.7
20210615225003 54 93 1.0 4.0 0.00 0.30 0.10 92 1009.7
20210615224003 55 101 2.0 9.0 0.00 0.33 0.10 92 1009.6
20210615223003 55 251 1.0 4.0 0.00 0.36 0.10 92 1009.5
20210615222003 56 318 1.0 7.0 0.00 0.40 0.10 92 1009.5
20210615221003 56 251 1.0 4.0 0.00 0.44 0.10 92 1009.1
20210615220003 57 18 2.0 4.0 0.00 0.49 0.10 92 1009.0
20210615215003 57 35 2.0 7.0 0.00 0.54 0.10 91 1008.9
20210615214003 58 43 3.0 10.0 0.01 0.60 0.10 91 1008.8
20210615213003 59 313 2.0 11.0 0.01 0.68 0.10 89 1008.6
20210615212003 60 53 1.0 5.0 0.01 0.76 0.10 90 1008.5
20210615211003 60 38 1.0 3.0 0.02 0.86 0.10 90 1008.4
20210615210005 61 98 1.0 6.0 0.02 0.96 0.10 89 1008.3
20210615205005 61 62 1.0 5.0 0.02 1.04 0.10 89 1008.1
20210615204005 62 16 3.0 11.0 0.01 1.13 0.09 89 1007.9
20210615203005 62 19 2.0 12.0 0.02 1.22 0.09 89 1007.6
20210615202005 62 265 1.0 5.0 0.02 1.27 0.09 91 1007.6
20210615201005 61 275 2.0 7.0 0.02 1.28 0.08 89 1007.7
20210615200005 62 92 2.0 6.0 0.02 1.30 0.08 91 1007.6
20210615195005 61 8 2.0 8.0 0.03 1.30 0.08 90 1007.6
20210615194005 62 214 1.0 8.0 0.03 1.30 0.08 91 1007.6
20210615193005 62 180 0.0 4.0 0.03 1.29 0.07 93 1007.5
20210615192005 61 103 0.0 4.0 0.04 1.29 0.07 95 1007.6
20210615191005 60 243 0.0 2.0 0.04 1.28 0.06 94 1007.9
20210615190005 60 243 0.0 3.0 0.05 1.28 0.06 93 1008.0
20210615185005 60 246 1.0 3.0 0.04 1.27 0.05 92 1008.0
20210615184005 60 228 2.0 4.0 0.04 1.27 0.05 90 1008.0
20210615183005 60 240 2.0 5.0 0.03 1.29 0.04 88 1007.7
20210615182005 62 242 1.0 7.0 0.03 1.35 0.03 87 1007.7
20210615181005 63 214 3.0 7.0 0.02 1.35 0.02 82 1007.4
20210615180005 65 209 2.0 6.0 0.01 1.34 0.01 77 1007.0
20210615175005 66 241 0.0 2.0 0.01 1.34 0.01 80 1006.9
20210615174005 65 302 0.0 1.0 0.01 1.34 0.01 85 1006.9
20210615173005 64 274 0.0 1.0 0.01 1.34 0.01 87 1006.9
20210615172005 65 267 1.0 3.0 0.00 1.33 0.00 80 1007.2
20210615171005 66 241 2.0 4.0 0.00 1.33 0.00 72 1007.2
20210615170005 66 205 3.0 6.0 0.00 1.33 0.00 72 1007.2
20210615165005 66 199 3.0 7.0 0.00 1.33 0.00 70 1007.3
20210615164005 67 211 3.0 7.0 0.00 1.33 0.00 70 1007.3
20210615163005 66 211 4.0 8.0 0.00 1.33 0.00 72 1007.3
20210615162005 64 205 4.0 7.0 0.00 1.33 0.00 75 1007.5
20210615161005 64 199 4.0 8.0 0.00 1.33 0.00 77 1007.5
20210615160004 64 204 4.0 9.0 0.00 1.33 0.00 75 1007.6
20210615155007 63 201 3.0 8.0 0.00 1.33 0.00 78 1007.6
20210615154005 63 209 2.0 6.0 0.00 1.33 0.00 81 1007.6
20210615153005 63 199 3.0 8.0 0.00 1.33 0.00 83 1007.6
20210615152005 62 205 3.0 6.0 0.00 1.36 0.00 84 1007.7
20210615151004 61 208 2.0 6.0 0.00 1.36 0.00 84 1007.7
20210615150005 61 210 1.0 4.0 0.00 1.36 0.00 84 1007.7
20210615145005 61 211 3.0 5.0 0.00 1.36 0.00 85 1007.6
20210615144005 61 201 3.0 8.0 0.00 1.36 0.00 86 1007.7
20210615143005 60 208 3.0 6.0 0.00 1.36 0.00 88 1007.7
20210615142005 60 199 3.0 8.0 0.00 1.36 0.00 88 1007.7
20210615141005 60 209 2.0 7.0 0.00 1.36 0.00 88 1007.8
20210615140004 60 199 3.0 6.0 0.00 1.36 0.00 89 1007.7
20210615135005 60 198 4.0 8.0 0.00 1.36 0.00 89 1007.8
20210615134005 60 200 4.0 12.0 0.00 1.36 0.00 90 1007.9
20210615133005 59 200 3.0 6.0 0.00 1.36 0.00 91 1007.7
20210615132005 59 201 3.0 7.0 0.00 1.36 0.00 91 1007.9
20210615131005 59 198 2.0 5.0 0.00 1.36 0.00 93 1007.8
20210615130005 58 194 3.0 6.0 0.00 1.36 0.00 93 1007.8
20210615125005 58 199 4.0 9.0 0.00 1.36 0.00 93 1007.9
20210615124005 58 194 3.0 9.0 0.00 1.36 0.00 95 1007.8
20210615123005 58 209 3.0 6.0 0.00 1.36 0.00 96 1007.8
20210615122004 57 206 3.0 6.0 0.00 1.36 0.00 97 1007.9
20210615121005 57 204 3.0 7.0 0.00 1.36 0.00 97 1007.8
20210615120005 56 204 3.0 5.0 0.00 1.36 0.00 97 1007.9
20210615115005 56 211 2.0 5.0 0.00 1.36 0.00 98 1007.9
20210615114005 56 0 0.0 0.0 0.00 1.36 0.00 97 1008.0
20210615113004 56 0 0.0 0.0 0.00 1.36 0.00 97 1008.0
20210615112005 55 0 0.0 0.0 0.00 1.36 0.00 98 1007.9
20210615111005 55 0 0.0 0.0 0.00 1.36 0.00 98 1007.9
20210615110005 55 159 0.0 1.0 0.00 1.36 0.00 98 1008.0
20210615105005 55 159 1.0 4.0 0.00 1.36 0.00 98 1008.0
20210615104005 55 157 0.0 1.0 0.00 1.36 0.00 98 1007.8
20210615103005 54 157 0.0 3.0 0.00 1.36 0.00 98 1007.8
20210615102005 53 40 0.0 2.0 0.00 1.36 0.00 98 1007.8
20210615101005 53 0 0.0 0.0 0.00 1.36 0.00 98 1007.8
20210615100005 52 0 0.0 0.0 0.00 1.36 0.00 97 1007.8
20210615095005 52 0 0.0 0.0 0.00 1.36 0.00 97 1007.9
20210615094005 52 0 0.0 0.0 0.00 1.36 0.00 97 1007.9
20210615093005 52 40 0.0 1.0 0.00 1.36 0.00 97 1007.9
20210615092005 52 40 0.0 1.0 0.00 1.36 0.00 97 1008.0
20210615091005 52 0 0.0 0.0 0.00 1.36 0.00 97 1008.0
20210615090005 52 0 0.0 0.0 0.00 1.36 0.00 97 1008.0
20210615085005 52 0 0.0 0.0 0.00 1.36 0.00 97 1008.0
20210615084004 52 0 0.0 0.0 0.00 1.37 0.00 97 1008.1
20210615083005 52 0 0.0 0.0 0.00 1.37 0.00 97 1008.0
20210615082005 52 0 0.0 0.0 0.00 1.39 0.00 97 1008.1
20210615081004 52 0 0.0 0.0 0.00 1.41 0.00 97 1008.0
20210615080005 52 40 0.0 1.0 0.00 1.45 0.00 97 1008.1
20210615075004 52 40 0.0 2.0 0.00 1.48 0.00 97 1008.2
20210615074005 53 40 0.0 1.0 0.00 1.53 0.00 97 1008.1
20210615073005 53 0 0.0 0.0 0.00 1.58 0.00 97 1008.3
20210615072005 53 0 0.0 0.0 0.00 1.60 0.00 97 1008.4
20210615071005 53 0 0.0 0.0 0.00 1.63 0.00 97 1008.3
20210615070005 53 0 0.0 0.0 0.00 1.65 0.00 97 1008.3
20210615065005 53 0 0.0 0.0 0.00 1.72 0.00 97 1008.3
20210615064005 53 0 0.0 0.0 0.00 1.86 0.00 97 1008.3
20210615063005 53 0 0.0 0.0 0.00 2.12 0.00 97 1008.3
20210615062004 53 0 0.0 0.0 0.00 2.27 0.00 97 1008.3
20210615061004 53 0 0.0 0.0 0.00 2.28 0.00 97 1008.4
20210615060005 53 0 0.0 0.0 0.00 2.28 0.00 97 1008.5
20210615055005 53 0 0.0 0.0 0.00 2.28 0.00 97 1008.5
20210615054005 53 0 0.0 0.0 0.00 2.28 0.00 97 1008.5
20210615053005 53 0 0.0 0.0 0.00 2.28 0.00 97 1008.3
20210615052005 53 0 0.0 0.0 0.00 2.28 0.00 97 1008.4
20210615051004 53 0 0.0 0.0 0.00 2.28 0.00 97 1008.3
20210615050005 53 0 0.0 0.0 0.00 2.28 0.00 97 1008.2
20210615045005 53 0 0.0 0.0 0.00 2.28 0.00 97 1008.2
20210615044005 53 0 0.0 0.0 0.00 2.28 0.00 97 1008.2
20210615043004 53 0 0.0 0.0 0.00 2.28 0.00 96 1008.3
20210615042005 53 0 0.0 0.0 0.00 2.28 0.00 97 1008.3
20210615041005 53 0 0.0 0.0 0.00 2.28 0.00 97 1008.5
20210615040005 54 0 0.0 0.0 0.00 2.28 0.00 97 1008.5
20210615035005 54 0 0.0 0.0 0.00 2.28 2.28 97 1008.6
20210615034004 53 0 0.0 0.0 0.00 2.28 2.28 97 1008.6
20210615033005 53 0 0.0 0.0 0.00 2.28 2.28 96 1008.7
20210615032004 53 0 0.0 0.0 0.00 2.28 2.28 96 1008.6
20210615031004 54 0 0.0 0.0 0.00 2.28 2.28 96 1008.6
20210615030005 54 0 0.0 0.0 0.00 2.28 2.28 96 1008.6
20210615025004 54 0 0.0 0.0 0.00 2.28 2.28 96 1008.7
20210615024004 54 0 0.0 0.0 0.01 2.28 2.28 96 1008.8
20210615023004 55 0 0.0 0.0 0.01 2.28 2.28 96 1009.0
20210615022005 55 40 0.0 1.0 0.01 2.28 2.28 96 1009.0
20210615021005 56 40 0.0 1.0 0.01 2.28 2.28 96 1009.0
20210615020005 56 0 0.0 0.0 0.01 2.28 2.28 96 1009.0
20210615015004 57 0 0.0 0.0 0.01 2.28 2.28 96 1009.0
20210615014005 57 0 0.0 0.0 0.01 2.27 2.27 96 1009.0
20210615013005 57 0 0.0 0.0 0.01 2.27 2.27 96 1008.8
20210615012004 57 0 0.0 0.0 0.02 2.27 2.27 96 1008.9
20210615011004 57 0 0.0 0.0 0.03 2.27 2.27 96 1008.8
20210615010005 57 0 0.0 0.0 0.05 2.27 2.27 96 1008.8